Flag for Germany Weather past 2 weeks in Cloppenburg, Lower Saxony, Germany

Now
41 °F

Passing clouds.


Feels Like: 38 °F
Forecast: 32 / 45 °F
Wind: 5 mph from Northwest

Location: Meppen-Mil

Current Time: Feb 27, 2015 at 7:12:03 AM

Latest Report: Feb 27, 2015 at 6:20 AM


Visibility: N/A

Pressure: 29.83 "Hg

Humidity: 93%

Dew point: 39 °F

Location of CloppenburgLocation

Historic Weather in Cloppenburg — Graph

°F

Cloppenburg temperature yesterday

Maximum temperature yesterday: 48 °F (at 2:20 PM)
Minimum temperature yesterday: 37 °F (at 7:20 AM)
Average temperature yesterday: 43 °F

Past Weeks' High & Low Weather Summary

 TemperatureHumidityPressure
High54 °F (Feb 14, 3:20 PM)100% (Feb 16, 7:20 AM)30.72 "Hg (Feb 16, 7:20 AM)
Low25 °F (Feb 17, 1:20 AM)54% (Feb 14, 3:20 PM)29.27 "Hg (Feb 21, 6:20 AM)
Average38 °F84%29.95 "Hg
* Reported Feb 12 4:20 AM — Feb 27 4:20 AM, Cloppenburg, Weather by CustomWeather, © 2015

Note: Actual official high and low records may vary slightly from our data, if they occured in-between our weather recording intervals... More about our weather records

Advertising

Cloppenburg weather history for previous 24 hours

 ConditionsComfort  
Time TempWeatherWind HumidityBarometerVisibility
4:20 AM
Fri, Feb 27
41 °FQuite cool.5 mph93%29.80 "Hg4 mi
3:20 AM41 °FQuite cool.8 mph93%29.77 "Hg3 mi
2:20 AM43 °FQuite cool.6 mph93%29.77 "Hg1 mi
1:20 AM43 °FQuite cool.3 mph93%29.77 "Hg2 mi
12:20 AM43 °FQuite cool.6 mph93%29.77 "Hg2 mi
11:20 PM
Thu, Feb 26
43 °FQuite cool.5 mph93%29.77 "Hg2 mi
10:20 PM43 °FQuite cool.7 mph93%29.77 "Hg1 mi
9:20 PM45 °FQuite cool.9 mph87%29.80 "Hg1 mi
8:20 PM45 °FQuite cool.8 mph87%29.83 "Hg2 mi
7:20 PM46 °FCool.10 mph76%29.83 "Hg5 mi
6:20 PM46 °FCool.10 mph76%29.86 "Hg6 mi
5:20 PM48 °FCool.9 mph71%29.86 "HgN/A
4:20 PM48 °FCool.9 mph71%29.86 "HgN/A
3:20 PM48 °FCool.10 mph66%29.89 "HgN/A
2:20 PM48 °FCool.10 mph66%29.92 "HgN/A
1:20 PM46 °FBroken clouds.12 mph71%29.98 "HgN/A
12:20 PM46 °FPartly sunny.10 mph71%30.01 "HgN/A
11:20 AM43 °FPartly sunny.9 mph81%30.01 "HgN/A
10:46 AM43 °FBroken clouds.8 mph81%30.04 "HgN/A
10:20 AM41 °FBroken clouds.8 mph81%30.04 "Hg5 mi
9:45 AM39 °FPartly sunny.12 mph87%30.07 "Hg4 mi
8:20 AM39 °FFog.6 mph87%30.07 "Hg2 mi
7:20 AM37 °FFog.5 mph93%30.07 "Hg3 mi
Weather by CustomWeather, © 2015

See weather overviewHow to use our weather pages